www.pogodaiklimat.ru

Погода и климат >> Архив погоды >> Россия >> Хабаровский край >> Советская Гавань


ПОГОДА в Советской Гавани

  • Прогноз погоды в Советской Гавани
  • Монитор погоды в Советской Гавани
  • Климат города

АРХИВ ПОГОДЫ в Советской Гавани

Время (UTC), дата Ветер
(напр.,м/с)
 
Видим.   Явления Облачность Т
(С)
Тd
(С)
f
(%)
Тe
(С)
Тes
(С)
Комфортность P
(гПа)
Po
(гПа)
Тmin
(С)
Tmax
(С)
R
(мм)
R24
(мм)
S
(см)
06 15.10 Ю 4 10 км ливневой дождь, в посл. час гроза 10/10 300 м
[Cb calv]
+11.2 +8.9 86 +9 +9 1010.7 1008.2
09 15.10 штиль 0 12 км {гроза, ливн. осадки} 10/8 600 м
[Cb cap Ac und]
+9.8 +8.8 93 +9 +9 1010.6 1008.0 +14.7 4
12 15.10 З 2 14 км {гроза, ливн. осадки} 10/8 600 м
[Cb cap Ac As]
+8.1 +4.5 78 +6 +6 1010.9 1008.3
15 15.10 З 4 23 км {ливн. осадки} 4/0
[Ci fib]
+5.9 +1.9 75 +2 +2 1010.5 1007.9
18 15.10 З 4 23 км 10/0
[Ac trans Ci fib]
+5.0 +0.9 75 +1 +1 1009.6 1007.0
21 15.10 З 4 50 км слабый ливневой дождь 10/8 600 м
[Cb cap Ac und]
+5.5 +0.6 71 +2 +2 1008.7 1006.1 +4.8 0.4
00 16.10 З 2 50 км {ливн. осадки} 10/8 600 м
[Sc Ac lent]
+6.5 +0.5 65 +5 +5 1008.2 1005.6
03 16.10 СЗ 4 50 км 10/8 600 м
[Sc Ac lent]
+8.8 +0.4 56 +6 +6 1007.1 1004.5
06 16.10 З 6-10
{10}
50 км 10/5 600 м
[Sc Ac lent Ci fib]
+9.3 +0.2 53 +6 +6 1005.9 1003.4
09 16.10 СЗ 6-12
{16}
8000 м ливневой дождь 10/10 600 м
[Cb cap]
+3.7 +2.6 93 -2 -2 1006.6 1004.0 +9.3 1
12 16.10 З 6-12
{12}
9000 м ливневой дождь 10/10 600 м
[Cb cap]
+3.8 +2.7 93 -2 -2 1006.4 1003.8
15 16.10 З 4 6000 м ливневой дождь 10/10 600 м
[St]
+3.7 +2.7 93 -1 -1 1005.8 1003.2
18 16.10 СЗ 8-14
{14}
8000 м слабый ливневой дождь 10/10 600 м
[Cb cap]
+4.4 +1.4 81 -2 -2 1006.6 1004.0
21 16.10 СЗ 8-14
{14}
50 км {ливн. осадки} 10/9 600 м
[Cb cap Ac trans Ci fib]
+4.7 -0.6 68 -1 -1 1007.9 1005.3 +3.1 7
00 17.10 СЗ 10-14
{14}
50 км 8/8 600 м
[Sc]
+5.0 -1.7 62 -1 -1 1009.4 1006.8
03 17.10 СЗ 10-18
{18}
50 км 8/3 600 м
[Sc Ac trans]
+6.9 -1.7 54 +2 +2 1009.1 1006.5
06 17.10 СЗ 10-16
{16}
50 км 6/3 600 м
[Sc Ac trans]
+6.6 -2.5 52 +1 +1 1008.4 1005.8
09 17.10 СЗ 4
{16}
22 км 8/3 600 м
[Sc Ac lent Ci fib]
+4.0 -3.9 56 0 0 1009.5 1006.9 +6.9
12 17.10 З 6-12
{14}
25 км 10/8 600 м
[Sc Ac lent]
+3.6 -2.1 66 -2 -2 1008.9 1006.3
15 17.10 СЗ 8-10
{16}
22 км 10/6 600 м
[Sc Ac lent]
+3.6 -1.2 71 -3 -3 1008.9 1006.3
18 17.10 СЗ 8 16 км 10/8 600 м
[Sc Ac lent]
+4.7 -1.1 66 -1 -1 1009.9 1007.3
21 17.10 З 4
{12}
50 км 4/0
[Ac lent]
+4.6 -0.4 70 +1 +1 1019.9 1009.3 +3.2
00 18.10 СЗ 12-16
{16}
50 км 8/3 600 м
[Sc Ac trans Ci fib]
+7.7 -0.5 56 +2 +2 1014.2 1011.6
03 18.10 СЗ 10-14
{16}
50 км 4/3 600 м
[Sc Ci fib]
+9.5 -0.9 48 +5 +6 1014.8 1012.2
06 18.10 С 8-12
{14}
50 км 3/3 600 м
[Sc]
+9.8 -1.8 44 +6 +6 1015.2 1012.7
09 18.10 З 4
{12}
20 км 3/3 600 м
[Sc]
+6.7 -1.0 58 +4 +4 1017.2 1014.6 +10.3
12 18.10 ЮЗ 2 23 км ясно +3.5 -3.0 62 +1 +1 1017.9 1015.3
15 18.10 ЮЗ 2 22 км ясно +0.7 -3.7 72 -3 -3 1017.7 1015.1
18 18.10 ЮЗ 2 22 км ясно +1.1 -4.0 69 -2 -2 1017.3 1014.7
21 18.10 ЮЗ 2 50 км 10/4 600 м
[Cb cap Ci fib]
+1.6 -3.7 68 -1 -1 1016.8 1014.2 0.0
00 19.10 З 2 50 км {ливн. осадки} 10/3 600 м
[Sc As trans]
+4.5 -2.3 61 +2 +3 1017.1 1014.5
03 19.10 штиль 0 50 км 10/4 600 м
[Sc As trans]
+7.8 -2.5 48 +8 +9 1015.8 1013.3
06 19.10 З 2 50 км в посл. час дождь 10/8 600 м
[Sc As op Ci fib]
+8.4 +0.5 58 +7 +7 1015.2 1012.6
09 19.10 штиль 0 30 км {дождь} 10/4 600 м
[Sc Ac trans Ci fib]
+5.7 +2.0 77 +5 +5 1016.2 1013.6 +9.0 0.3
12 19.10 ЮЗ 2 30 км {дождь} 10/6 600 м
[Sc Ac und Ci fib]
+4.9 +1.3 77 +2 +2 1017.0 1014.4
15 19.10 ЮВ 2 50 км 10/3 600 м
[Sc Ac trans Ci fib]
+3.1 +0.2 81 0 0 1017.2 1014.6
18 19.10 Ю 2 45 км ясно +0.7 -1.2 87 -3 -3 1017.1 1014.4
21 19.10 ЮЗ 2 50 км 3/3 600 м
[Sc Ci fib]
-0.8 -1.2 97 -5 -5 1017.1 1014.4 -0.8
00 20.10 ЮЗ 2 50 км 10/5 600 м
[Sc Ac lent Ci fib]
+4.4 -1.0 68 +2 +3 1016.8 1014.2 -1.1
03 20.10 СЗ 2 50 км 8/4 600 м
[Cu hum Ac lent Ci fib]
+11.7 +1.2 48 +11 +13 1014.4 1011.8
06 20.10 Ю 2 50 км 10/0
[Ac lent Ci fib]
+11.8 +3.1 55 +11 +12 1012.9 1010.4
09 20.10 штиль 0 50 км 10/5 600 м
[Sc Ac trans Ci fib]
+9.1 +3.5 68 +9 +9 1014.0 1011.4 +12.5
12 20.10 штиль 0 45 км 10/10 600 м
[Cb cap]
+8.7 +2.4 65 +8 +8 1015.1 1012.6
15 20.10 С 2 18 км слабый ливневой дождь 10/10 600 м
[Cb cap]
+8.0 +3.5 73 +6 +6 1015.9 1013.4
18 20.10 С 2 21 км {ливн. осадки} 10/4 600 м
[Cb cap Ac trans Ci fib]
+6.4 +3.1 79 +4 +4 1017.4 1014.8
21 20.10 С 2 50 км 4/3 600 м
[Sc Ci fib]
+4.6 +0.2 73 +2 +2 1019.3 1016.6 +4.5 0.9
00 21.10 СЗ 2 50 км ясно +7.3 -2.4 50 +6 +8 1020.8 1018.2 +4.3
03 21.10 В 2 50 км 4/3 600 м
[Cu hum Ci fib]
+9.6 -4.2 37 +9 +12 1020.3 1017.7
06 21.10 В 2 50 км 4/1 600 м
[Sc Ci fib]
+8.4 -2.5 46 +7 +8 1021.0 1018.4
09 21.10 штиль 0 28 км 6/0
[Ac trans Ci fib]
+4.7 -1.5 64 +4 +4 1022.7 1020.1 +9.7
12 21.10 З 2 30 км 8/0
[Ac lent Ci fib]
+0.4 -1.9 85 -3 -3 1023.8 1021.1
15 21.10 З 2 24 км 6/0
[Ci fib]
-0.8 -3.4 83 -5 -5 1023.9 1021.2
18 21.10 ЮЗ 2 40 км 4/0
[Ci fib]
-1.2 -3.9 82 -5 -5 1023.3 1020.6
21 21.10 ЮЗ 2 50 км 3/0
[Ci fib]
-2.2 -4.3 85 -6 -6 1023.9 1021.2 -2.2
00 22.10 ЮЗ 2 50 км ясно +3.1 -3.1 64 +1 +3 1024.1 1021.4 -2.2
03 22.10 штиль 0 50 км ясно +10.4 -3.7 37 +10 +17 1022.6 1020.0

 

Местоположение метеостанции Советская Гавань (Хабаровский край, Россия): широта 49.00 долгота 140.30 высота над уровнем моря 24 м.

В архиве по умолчанию представлена погода в Советской Гавани за последнюю неделю. Архивные данные за месяц целиком и за предыдущие месяцы, начиная с января 2011 года, Вы можете получить, выбрав интересующий диапазон дат из раскрывающегося списка и нажав кнопку "Ввод!".


*Определитесь, кто Вы:
робот инопланетянин человек

Внимание! Время в таблицах - всемирное. Для получения местного времени необходимо прибавить поправку, которая в Советской Гавани равна 10 ч.

Смотрите также архив погоды в соседних городах и на ближайших метеорологических станциях:

Погода в Тумнине (Хабаровский край, Россия) (75 км)
Погода в Мопау (Хабаровский край, Россия) (103 км)
Погода в Углегорске (Сахалинская область, Россия) (124 км)
Погода в Солекуль (Хабаровский край, Россия) (169 км)
Погода в Пильво (Сахалинская область, Россия) (175 км)
Погода в Ильинском (Сахалинская область, Россия) (180 км)
Погода в Макарове (Сахалинская область, Россия) (181 км)
Погода в Сегжеме (Хабаровский край, Россия) (203 км)
Погода в Поронайске (Сахалинская область, Россия) (205 км)
Погода в Оноре (Сахалинская область, Россия) (209 км)

Пояснения к столбцам:

Ветер - указаны скорость ветра в м/с - средняя за 10 мин, порывы в срок и между сроками (в фигурных скобках) и направление, откуда дует ветер: С - северный, СВ - северо-восточный, В - восточный, ЮВ - юго-восточный, Ю - южный, ЮЗ - юго-западный, З - западный, СЗ - северо-западный.
Видимость - горизонтальная дальность видимости в метрах или километрах. При видимости от 1 до 10 км при отсутствии осадков обычно наблюдается дымка, при ухудшении видимости до 1 км и менее - туман. В сухую погоду видимость может ухудшаться дымом, пылью или мглою.
Явления - указаны атмосферные явления, наблюдавшиеся в срок или в последний час перед сроком; фигурными скобками обозначены явления, наблюдавшиеся между сроками (за 1-3 часа до срока); квадратными скобками обозначены град или гололедные отложения с указанием их диаметра в мм.
Облачность - указаны через наклонную черту общая и нижняя облачность в баллах и высота нижней границы облаков в метрах; квадратными скобками обозначены формы облаков: Ci - перистые, Cs - перисто-слоистые, Cc - перисто-кучевые, Ac - высококучевые, As - высокослоистые, Sc - слоисто-кучевые, Ns - слоисто-дождевые, Cu - кучевые, Cb - кучево-дождевые. Подробнее классификацию облаков см. в Атласе облаков (PDF).
T - Температура воздуха - температура, измеренная на высоте 2 м над землей.
Td - Температура точки росы - температура, при понижении до которой содержащийся в воздухе водяной пар достигнет насыщения.
f - Относительная влажность воздуха - влажноcть воздуха, измеренная на высоте 2 м над землей.
Te - Эффективная температура - температура, которую ощущает одетый по сезону человек в тени. Характеристика душности погоды. При расчете учитывается влияние влажности воздуха и скорости ветра на теплоощущения человека.
Tes - Эффективная температура на солнце - температура, которую ощущает человек, с поправкой на солнечный нагрев. Характеристика знойности погоды. Зависит от высоты солнца над горизонтом, облачности и скорости ветра. Ночью, в пасмурную погоду, а также при ветре 12 м/с и более поправка равна нулю.
P - Атмосферное давление - приведенное к уровню моря атмосферное давление.
Po - Атмосферное давление - измеренное на уровне метеостанции атмосферное давление.
Tmin - Минимальная температура - минимум температуры воздуха на высоте 2 м над землей.
Tmax - Максимальная температура - максимум температуры воздуха на высоте 2 м над землей.
R - Количество осадков - Количество выпавших осадков за период времени, мм. При наведении курсора мыши на число - период времени, за который выпало указанное количество осадков.
R24 - Количество осадков - Количество выпавших осадков за 24 часа, мм.
S - Снежный покров - Высота снежного покрова, см. При наведении курсора мыши на число - состояние снежного покрова и степень покрытия местности в баллах.